Regional Weather Roundup
Issued by NWS

Home | Current Version | Previous Version | Text Only | Print | Product List | Glossary On
Versions: 1 2 3 4 5 6 7 8 9 10 11 12 13 14 15 16 17 18 19 20 21 22 23 24 25 26 27 28 29 30 31 32 33 34 35 36 37 38 39 40 41 42 43 44 45 46 47 48 49 50
000
ASUS43 KDMX 022207
RWRIA

WEATHER ROUNDUP FOR IOWA
NATIONAL WEATHER SERVICE DES MOINES IA
500 PM CDT TUE SEP 02 2014

NOTE: "FAIR" INDICATES FEW OR NO CLOUDS BELOW 12,000 FEET WITH NO
SIGNIFICANT WEATHER AND/OR OBSTRUCTIONS TO VISIBILITY.

* - THESE STATIONS ARE NOT NWS STATIONS...THUS NOT UNDER NWS
QUALITY CONTROL.  THEY ALSO DO NOT REPORT WEATHER SUCH
AS PRECIPITATION OR FOG.

IAZ001>003-012>014-020>022-031>034-043>046-022300-
   NORTHWEST IOWA

CITY           SKY/WX    TMP DP  RH WIND       PRES   REMARKS
CARROLL *      SUNNY     75  59  57 W7        29.96F
CHEROKEE *     SUNNY     75  61  60 SW10      29.96S
DENISON *      SUNNY     75  61  60 W5G12     29.95F
LE MARS *      SUNNY     77  57  50 SW10G16   29.95S
ORANGE CITY *  SUNNY     77  54  44 SW9       29.95S
SHELDON *      SUNNY     75  59  57 SW8       29.94S
SIOUX CITY     MOSUNNY   78  59  51 SW8       29.95F
SPENCER        SUNNY     77  58  51 W10       29.95S
STORM LAKE *   SUNNY     73  64  73 SW10G17   29.97S
$$

IAZ055>058-069>071-079>083-090>094-022300-
   SOUTHWEST IOWA

CITY           SKY/WX    TMP DP  RH WIND       PRES   REMARKS
ATLANTIC *     SUNNY     77  57  50 W6G12     29.96F
AUDUBON *      SUNNY     79  63  57 SW3       29.98S HX  80
CLARINDA *     SUNNY     81  61  50 NW8       29.96F HX  81
COUNCIL BLFS * SUNNY     79  57  47 SW10      29.95F HX  80
CRESTON *      SUNNY     77  61  57 NW8G15    29.97F
HARLAN  *      SUNNY     77  61  57 W9        30.00F
LAMONI         SUNNY     80  59  48 W9        29.95F HX  81
RED OAK *      SUNNY     81  57  44 W7        29.96F HX  81
SHENANDOAH *   SUNNY     81  63  54 W5        29.95F HX  82
$$

IAZ047>049-059>061-072>074-084-022300-
   CENTRAL IOWA

CITY           SKY/WX    TMP DP  RH WIND       PRES   REMARKS
AMES           SUNNY     78  58  49 W8        29.94F
ANKENY *       SUNNY     79  59  50 W8        29.94F HX  80
CHARITON *     SUNNY     79  59  50 W8        29.95F HX  80
DES MOINES     MOSUNNY   80  58  46 W7        29.94F HX  80
GRINNELL*      SUNNY     77  57  50 W9        29.95F
KNOXVILLE *    SUNNY     77  59  53 W10       29.94F
MARSHALLTOWN   SUNNY     77  56  48 W9        29.94F
PELLA *        SUNNY     79  61  53 NW7       29.96S HX  80
PERRY *          N/A     77  59  53 W3        29.96F
$$

IAZ004>006-015-016-023>025-035-036-022300-
   NORTH CENTRAL IOWA

CITY           SKY/WX    TMP DP  RH WIND       PRES   REMARKS
ALGONA *       SUNNY     77  57  50 SW10      29.95S
CLARION *      SUNNY     77  57  50 W9G17     29.95S
ESTHERVILLE    MOSUNNY   75  57  53 W12       29.94F
FORT DODGE *   SUNNY     75  59  57 W7        29.96S
MASON CITY     SUNNY     77  56  48 SW12      29.95F
FOREST CITY *  MOSUNNY   75  55  50 W7        29.95S
IOWA FALLS *     N/A     77  57  50 W9        29.96S
$$

IAZ007>011-017>019-026>030-037>042-050>054-066-022300-
   NORTHEAST IOWA

CITY           SKY/WX    TMP DP  RH WIND       PRES   REMARKS
CEDAR RAPIDS   MOSUNNY   77  59  53 W9        29.93F
CHARLES CITY * MOSUNNY   75  59  57 W8G16     29.95S
CLINTON *      MOSUNNY   79  61  53 NW7       29.95S HX  80
DECORAH *      MOSUNNY   75  59  57 W6        29.92F
DUBUQUE        SUNNY     76  58  53 W9        29.94S
MONTICELLO *   SUNNY     77  59  53 W8        29.93F
OELWEIN *      SUNNY     75  57  53 W10       29.95S
WATERLOO       MOSUNNY   78  56  46 W10       29.92F
$$

IAZ064-065-067-068-078-022300-
   EAST CENTRAL IOWA

CITY           SKY/WX    TMP DP  RH WIND       PRES   REMARKS
DAVENPORT      PTSUNNY   76  61  59 W9        29.93F
IOWA CITY      MOSUNNY   79  61  53 W10       29.93F HX  80
MT. PLEASANT * SUNNY     82  59  44 W8        29.93F HX  82
MUSCATINE *    MOSUNNY   81  61  50 W10       29.93S HX  81
QUAD CITIES    MOSUNNY   81  61  50 NW12      29.91F HX  82
$$

IAZ062-063-075>077-085>089-095>099-022300-
   SOUTHEAST IOWA

CITY           SKY/WX    TMP DP  RH WIND       PRES   REMARKS
BURLINGTON     LGT RAIN  81  62  52 W10       29.93F HX  82
FAIRFIELD *    SUNNY     79  59  50 NW12      29.94F HX  80
FORT MADISON * SUNNY     82  61  47 W7        29.94F HX  83
KEOKUK *       SUNNY     81  63  54 W9G16     29.92F HX  82
OSKALOOSA *      N/A     79  61  53 W8        29.95F HX  80
CENTERVILLE *  SUNNY     81  61  50 W10       29.96F HX  81
OTTUMWA        SUNNY     79  60  52 NW9       29.92F HX  80
WASHINGTON *   SUNNY     79  61  53 NW7G14    29.94S HX  80
$$

ABBREVIATIONS USED IN REMARKS
   TC - TEMPERATURES IN CELSIUS
  WCI - WIND CHILL INDEX
   HX - HEAT INDEX
  VSB - VISIBILITY
$$




USA.gov is the U.S. government's official web portal to all federal, state and local government web resources and services.